Time,TemperatureF,DewpointF,PressureIn,WindDirection,WindDirectionDegrees,WindSpeedMPH,WindSpeedGustMPH,Humidity,HourlyPrecipIn,Conditions,Clouds,dailyrainin,SoftwareType,DateUTC
2013-02-02 00:03:00,10.0,6.0,30.07,NW,304,0.0,2.0,85,0.00,,,0.00,,2013-02-02 05:03:00,
2013-02-02 00:12:00,10.0,6.0,30.07,NW,304,0.0,2.0,85,0.00,,,0.00,,2013-02-02 05:12:00,
2013-02-02 00:22:00,10.0,7.0,30.06,WNW,282,2.0,5.0,86,0.00,,,0.00,,2013-02-02 05:22:00,
2013-02-02 00:33:00,10.0,7.0,30.06,WSW,255,1.0,6.0,86,0.00,,,0.00,,2013-02-02 05:33:00,
2013-02-02 00:41:00,10.0,7.0,30.06,WSW,255,1.0,6.0,86,0.00,,,0.00,,2013-02-02 05:41:00,
2013-02-02 00:52:00,10.0,7.0,30.06,WSW,244,3.0,7.0,86,0.00,,,0.00,,2013-02-02 05:52:00,
2013-02-02 01:02:00,10.0,7.0,30.05,West,261,1.0,8.0,86,0.00,,,0.00,,2013-02-02 06:02:00,
2013-02-02 01:12:00,10.0,7.0,30.05,West,261,1.0,8.0,86,0.00,,,0.00,,2013-02-02 06:12:00,
2013-02-02 01:22:00,10.0,7.0,30.05,WSW,240,2.0,7.0,86,0.00,,,0.00,,2013-02-02 06:22:00,
2013-02-02 01:32:00,10.0,7.0,30.04,WSW,254,4.0,5.0,86,0.00,,,0.00,,2013-02-02 06:32:00,
2013-02-02 01:42:00,10.0,7.0,30.04,WSW,254,4.0,5.0,86,0.00,,,0.00,,2013-02-02 06:42:00,
2013-02-02 01:52:00,10.0,7.0,30.04,WSW,238,3.0,8.0,86,0.00,,,0.00,,2013-02-02 06:52:00,
2013-02-02 02:02:00,10.0,7.0,30.04,WSW,241,1.0,4.0,86,0.00,,,0.00,,2013-02-02 07:02:00,
2013-02-02 02:12:00,10.0,7.0,30.03,SW,229,1.0,3.0,86,0.00,,,0.00,,2013-02-02 07:12:00,
2013-02-02 02:21:00,10.0,7.0,30.03,SW,229,1.0,3.0,86,0.00,,,0.00,,2013-02-02 07:21:00,
2013-02-02 02:32:00,10.0,7.0,30.03,SW,226,1.0,3.0,86,0.00,,,0.00,,2013-02-02 07:32:00,
2013-02-02 02:42:00,10.0,7.0,30.03,SW,226,1.0,3.0,86,0.00,,,0.00,,2013-02-02 07:42:00,
2013-02-02 02:52:00,10.0,6.0,30.03,WSW,245,2.0,4.0,85,0.00,,,0.00,,2013-02-02 07:52:00,
2013-02-02 03:01:00,10.0,6.0,30.03,WSW,243,1.0,4.0,85,0.00,,,0.00,,2013-02-02 08:01:00,
2013-02-02 03:11:00,10.0,6.0,30.03,WSW,243,1.0,4.0,85,0.00,,,0.00,,2013-02-02 08:11:00,
2013-02-02 03:21:00,10.0,6.0,30.03,WSW,251,1.0,4.0,85,0.00,,,0.00,,2013-02-02 08:21:00,
2013-02-02 03:31:00,10.0,6.0,30.03,WSW,254,1.0,3.0,85,0.00,,,0.00,,2013-02-02 08:31:00,
2013-02-02 03:41:00,10.0,6.0,30.03,WSW,254,1.0,3.0,85,0.00,,,0.00,,2013-02-02 08:41:00,
2013-02-02 03:53:00,10.0,7.0,30.03,West,270,1.0,3.0,86,0.00,,,0.00,,2013-02-02 08:53:00,
2013-02-02 04:01:00,10.0,6.0,30.03,NNW,348,1.0,3.0,85,0.00,,,0.00,,2013-02-02 09:01:00,
2013-02-02 04:11:00,10.0,6.0,30.03,NNW,348,1.0,3.0,85,0.00,,,0.00,,2013-02-02 09:11:00,
2013-02-02 04:22:00,10.0,6.0,30.02,WNW,302,1.0,4.0,85,0.00,,,0.00,,2013-02-02 09:22:00,
2013-02-02 04:32:00,10.0,6.0,30.02,WNW,296,3.0,6.0,85,0.00,,,0.00,,2013-02-02 09:32:00,
2013-02-02 04:42:00,10.0,6.0,30.02,WNW,296,3.0,6.0,85,0.00,,,0.00,,2013-02-02 09:42:00,
2013-02-02 04:52:00,10.0,6.0,30.02,West,276,0.0,4.0,85,0.00,,,0.00,,2013-02-02 09:52:00,
2013-02-02 05:02:00,10.0,6.0,30.02,WNW,282,0.0,4.0,85,0.00,,,0.00,,2013-02-02 10:02:00,
2013-02-02 05:11:00,10.0,6.0,30.02,WNW,282,0.0,4.0,85,0.00,,,0.00,,2013-02-02 10:11:00,
2013-02-02 05:21:00,10.0,6.0,30.02,NNW,347,0.0,3.0,85,0.00,,,0.00,,2013-02-02 10:21:00,
2013-02-02 05:32:00,9.0,5.0,30.01,West,277,1.0,3.0,85,0.00,,,0.00,,2013-02-02 10:32:00,
2013-02-02 05:42:00,9.0,5.0,30.01,West,277,1.0,3.0,85,0.00,,,0.00,,2013-02-02 10:42:00,
2013-02-02 05:52:00,9.0,5.0,30.01,WNW,286,2.0,3.0,85,0.00,,,0.00,,2013-02-02 10:52:00,
2013-02-02 06:02:00,9.0,5.0,30.01,WNW,286,0.0,0.0,85,0.00,,,0.00,,2013-02-02 11:02:00,
2013-02-02 06:11:00,9.0,5.0,30.01,WNW,286,0.0,0.0,85,0.00,,,0.00,,2013-02-02 11:11:00,
2013-02-02 06:22:00,9.0,5.0,30.01,WNW,286,0.0,0.0,85,0.00,,,0.00,,2013-02-02 11:22:00,
2013-02-02 06:32:00,9.0,6.0,30.01,WNW,286,0.0,1.0,86,0.00,,,0.00,,2013-02-02 11:32:00,
2013-02-02 06:42:00,9.0,6.0,30.01,WNW,286,0.0,1.0,86,0.00,,,0.00,,2013-02-02 11:42:00,
2013-02-02 06:52:00,9.0,6.0,30.01,WNW,285,0.0,1.0,86,0.00,,,0.00,,2013-02-02 11:52:00,
2013-02-02 07:02:00,9.0,6.0,30.01,WNW,286,0.0,0.0,86,0.00,,,0.00,,2013-02-02 12:02:00,
2013-02-02 07:11:00,9.0,6.0,30.01,WNW,286,0.0,0.0,86,0.00,,,0.00,,2013-02-02 12:11:00,
2013-02-02 07:22:00,9.0,6.0,30.01,WNW,286,0.0,0.0,86,0.00,,,0.00,,2013-02-02 12:22:00,
2013-02-02 07:32:00,9.0,6.0,30.01,WNW,286,2.0,2.0,86,0.00,,,0.00,,2013-02-02 12:32:00,
2013-02-02 07:42:00,9.0,6.0,30.01,WNW,286,2.0,2.0,86,0.00,,,0.00,,2013-02-02 12:42:00,
2013-02-02 07:52:00,9.0,6.0,30.01,WNW,286,0.0,0.0,87,0.00,,,0.00,,2013-02-02 12:52:00,
2013-02-02 08:03:00,9.0,6.0,30.01,WNW,285,0.0,1.0,87,0.00,,,0.00,,2013-02-02 13:03:00,
2013-02-02 08:11:00,9.0,6.0,30.01,WNW,285,0.0,1.0,87,0.00,,,0.00,,2013-02-02 13:11:00,
2013-02-02 08:22:00,9.0,6.0,30.01,WNW,286,0.0,1.0,87,0.00,,,0.00,,2013-02-02 13:22:00,
2013-02-02 08:32:00,8.0,5.0,30.02,WNW,285,0.0,0.0,87,0.00,,,0.00,,2013-02-02 13:32:00,
2013-02-02 08:42:00,8.0,5.0,30.02,WNW,285,0.0,0.0,87,0.00,,,0.00,,2013-02-02 13:42:00,
2013-02-02 08:52:00,8.0,5.0,30.02,WNW,286,1.0,2.0,87,0.00,,,0.00,,2013-02-02 13:52:00,
2013-02-02 09:03:00,8.0,5.0,30.02,WNW,286,1.0,2.0,86,0.00,,,0.00,,2013-02-02 14:03:00,
2013-02-02 09:11:00,8.0,5.0,30.02,WNW,286,1.0,2.0,86,0.00,,,0.00,,2013-02-02 14:11:00,
2013-02-02 09:22:00,8.0,5.0,30.02,WNW,286,0.0,3.0,86,0.00,,,0.00,,2013-02-02 14:22:00,
2013-02-02 09:32:00,8.0,4.0,30.03,WNW,286,2.0,2.0,85,0.00,,,0.00,,2013-02-02 14:32:00,
2013-02-02 09:42:00,8.0,4.0,30.03,WNW,286,2.0,2.0,85,0.00,,,0.00,,2013-02-02 14:42:00,
2013-02-02 09:52:00,9.0,6.0,30.02,WNW,285,0.0,2.0,87,0.00,,,0.00,,2013-02-02 14:52:00,
2013-02-02 10:03:00,10.0,7.0,30.03,WNW,285,0.0,0.0,86,0.00,,,0.00,,2013-02-02 15:03:00,
2013-02-02 10:12:00,10.0,7.0,30.03,WNW,285,0.0,0.0,86,0.00,,,0.00,,2013-02-02 15:12:00,
2013-02-02 10:22:00,11.0,8.0,30.02,WNW,285,1.0,3.0,86,0.00,,,0.00,,2013-02-02 15:22:00,
2013-02-02 10:32:00,12.0,8.0,30.02,WNW,284,0.0,3.0,85,0.00,,,0.00,,2013-02-02 15:32:00,
2013-02-02 10:42:00,12.0,8.0,30.02,WNW,284,0.0,3.0,85,0.00,,,0.00,,2013-02-02 15:42:00,
2013-02-02 10:52:00,13.0,9.0,30.03,WNW,285,3.0,4.0,82,0.00,,,0.00,,2013-02-02 15:52:00,
2013-02-02 11:03:00,12.0,8.0,30.03,North,358,3.0,6.0,82,0.00,,,0.00,,2013-02-02 16:03:00,
2013-02-02 11:12:00,12.0,8.0,30.03,North,358,3.0,6.0,82,0.00,,,0.00,,2013-02-02 16:12:00,
2013-02-02 11:22:00,12.0,8.0,30.03,NE,44,3.0,9.0,84,0.00,,,0.00,,2013-02-02 16:22:00,
2013-02-02 11:32:00,12.0,8.0,30.03,NE,41,3.0,5.0,83,0.00,,,0.00,,2013-02-02 16:32:00,
2013-02-02 11:42:00,12.0,8.0,30.03,NE,41,3.0,5.0,83,0.00,,,0.00,,2013-02-02 16:42:00,
2013-02-02 11:52:00,12.0,8.0,30.03,NE,48,1.0,4.0,83,0.00,,,0.00,,2013-02-02 16:52:00,
2013-02-02 12:03:00,13.0,8.0,30.03,SE,128,3.0,4.0,81,0.00,,,0.00,,2013-02-02 17:03:00,
2013-02-02 12:11:00,13.0,8.0,30.03,SE,128,3.0,4.0,81,0.00,,,0.00,,2013-02-02 17:11:00,
2013-02-02 12:22:00,14.0,8.0,30.03,East,82,0.0,4.0,77,0.00,,,0.00,,2013-02-02 17:22:00,
2013-02-02 12:32:00,13.0,7.0,30.02,NE,42,1.0,4.0,78,0.00,,,0.00,,2013-02-02 17:32:00,
2013-02-02 12:42:00,13.0,7.0,30.02,NE,42,1.0,4.0,78,0.00,,,0.00,,2013-02-02 17:42:00,
2013-02-02 12:53:00,14.0,8.0,30.01,NE,41,3.0,5.0,77,0.00,,,0.00,,2013-02-02 17:53:00,
2013-02-02 13:02:00,15.0,9.0,30.01,NE,40,1.0,3.0,78,0.00,,,0.00,,2013-02-02 18:02:00,
2013-02-02 13:12:00,15.0,9.0,30.01,NE,40,1.0,3.0,78,0.00,,,0.00,,2013-02-02 18:12:00,
2013-02-02 13:22:00,15.0,9.0,30.01,North,0,2.0,4.0,77,0.00,,,0.00,,2013-02-02 18:22:00,
2013-02-02 13:32:00,14.0,8.0,30.01,North,10,7.0,9.0,77,0.00,,,0.00,,2013-02-02 18:32:00,
2013-02-02 13:42:00,14.0,8.0,30.01,North,10,7.0,9.0,77,0.00,,,0.00,,2013-02-02 18:42:00,
2013-02-02 13:52:00,14.0,8.0,30.01,North,0,3.0,6.0,77,0.00,,,0.00,,2013-02-02 18:52:00,
2013-02-02 14:02:00,14.0,8.0,30.01,NNW,337,7.0,8.0,75,0.00,,,0.00,,2013-02-02 19:02:00,
2013-02-02 14:12:00,14.0,8.0,30.01,NNW,337,7.0,8.0,75,0.00,,,0.00,,2013-02-02 19:12:00,
2013-02-02 14:21:00,14.0,7.0,30.01,WNW,297,2.0,7.0,72,0.00,,,0.00,,2013-02-02 19:21:00,
2013-02-02 14:32:00,15.0,7.0,30.01,North,349,6.0,9.0,70,0.00,,,0.00,,2013-02-02 19:32:00,
2013-02-02 14:42:00,15.0,7.0,30.01,North,349,6.0,9.0,70,0.00,,,0.00,,2013-02-02 19:42:00,
2013-02-02 14:52:00,15.0,6.0,30.01,NNW,343,6.0,8.0,68,0.00,,,0.00,,2013-02-02 19:52:00,
2013-02-02 15:01:00,15.0,6.0,30.01,North,3,6.0,8.0,68,0.00,,,0.00,,2013-02-02 20:01:00,
2013-02-02 15:11:00,15.0,6.0,30.01,North,3,6.0,8.0,68,0.00,,,0.00,,2013-02-02 20:11:00,
2013-02-02 15:22:00,15.0,5.0,30.01,NNW,341,5.0,10.0,64,0.00,,,0.00,,2013-02-02 20:22:00,
2013-02-02 15:32:00,14.0,4.0,30.01,NNW,345,8.0,10.0,63,0.00,,,0.00,,2013-02-02 20:32:00,
2013-02-02 15:42:00,14.0,4.0,30.01,NNW,345,8.0,10.0,63,0.00,,,0.00,,2013-02-02 20:42:00,
2013-02-02 15:52:00,14.0,4.0,30.01,NNW,346,8.0,11.0,65,0.00,,,0.00,,2013-02-02 20:52:00,
2013-02-02 16:02:00,14.0,4.0,30.02,NNW,346,10.0,11.0,65,0.00,,,0.00,,2013-02-02 21:02:00,
2013-02-02 16:11:00,14.0,4.0,30.02,NNW,346,10.0,11.0,65,0.00,,,0.00,,2013-02-02 21:11:00,
2013-02-02 16:21:00,13.0,3.0,30.02,NNW,347,4.0,11.0,65,0.00,,,0.00,,2013-02-02 21:21:00,
2013-02-02 16:32:00,12.0,3.0,30.02,North,358,3.0,5.0,67,0.00,,,0.00,,2013-02-02 21:32:00,
2013-02-02 16:42:00,12.0,3.0,30.02,North,358,3.0,5.0,67,0.00,,,0.00,,2013-02-02 21:42:00,
2013-02-02 16:52:00,12.0,4.0,30.03,North,1,0.0,5.0,68,0.00,,,0.00,,2013-02-02 21:52:00,
2013-02-02 17:02:00,13.0,4.0,30.03,North,358,3.0,5.0,68,0.00,,,0.00,,2013-02-02 22:02:00,
2013-02-02 17:12:00,13.0,4.0,30.03,North,358,3.0,5.0,68,0.00,,,0.00,,2013-02-02 22:12:00,
2013-02-02 17:21:00,12.0,3.0,30.03,North,358,0.0,4.0,67,0.00,,,0.00,,2013-02-02 22:21:00,
2013-02-02 17:32:00,12.0,3.0,30.03,North,0,0.0,3.0,67,0.00,,,0.00,,2013-02-02 22:32:00,
2013-02-02 17:42:00,12.0,3.0,30.03,North,0,0.0,3.0,67,0.00,,,0.00,,2013-02-02 22:42:00,
2013-02-02 17:52:00,12.0,4.0,30.03,North,0,0.0,3.0,69,0.00,,,0.00,,2013-02-02 22:52:00,
2013-02-02 18:02:00,12.0,4.0,30.03,North,0,1.0,3.0,68,0.00,,,0.00,,2013-02-02 23:02:00,
2013-02-02 18:11:00,12.0,4.0,30.03,North,0,1.0,3.0,68,0.00,,,0.00,,2013-02-02 23:11:00,
2013-02-02 18:22:00,11.0,3.0,30.03,North,0,1.0,3.0,69,0.00,,,0.00,,2013-02-02 23:22:00,
2013-02-02 18:32:00,11.0,3.0,30.03,North,0,1.0,3.0,71,0.00,,,0.00,,2013-02-02 23:32:00,
2013-02-02 18:42:00,11.0,3.0,30.03,North,0,1.0,3.0,71,0.00,,,0.00,,2013-02-02 23:42:00,
2013-02-02 18:50:00,10.0,4.0,30.04,North,0,1.0,3.0,76,0.00,,,0.00,,2013-02-02 23:50:00,
2013-02-02 18:52:00,10.0,3.0,30.03,North,0,1.0,3.0,71,0.00,,,0.00,,2013-02-02 23:52:00,
2013-02-02 19:02:00,10.0,4.0,30.04,North,0,0.0,2.0,75,0.00,,,0.00,,2013-02-03 00:02:00,
2013-02-02 19:11:00,10.0,4.0,30.04,North,0,0.0,2.0,75,0.00,,,0.00,,2013-02-03 00:11:00,
2013-02-02 19:22:00,10.0,4.0,30.04,North,0,1.0,3.0,76,0.00,,,0.00,,2013-02-03 00:22:00,
2013-02-02 19:32:00,10.0,4.0,30.04,North,0,1.0,3.0,76,0.00,,,0.00,,2013-02-03 00:32:00,
2013-02-02 19:42:00,10.0,4.0,30.04,North,0,1.0,3.0,76,0.00,,,0.00,,2013-02-03 00:42:00,
2013-02-02 23:11:00,8.0,3.0,30.00,South,187,3.0,5.0,78,0.00,,,0.00,,2013-02-03 04:11:00,
2013-02-02 23:22:00,8.0,3.0,30.00,South,187,3.0,5.0,78,0.00,,,0.00,,2013-02-03 04:22:00,
2013-02-02 23:32:00,7.0,2.0,30.00,South,188,2.0,3.0,78,0.00,,,0.00,,2013-02-03 04:32:00,
2013-02-02 23:42:00,7.0,2.0,30.00,South,188,2.0,3.0,78,0.00,,,0.00,,2013-02-03 04:42:00,
2013-02-02 23:52:00,7.0,2.0,30.00,South,188,2.0,3.0,79,0.00,,,0.00,,2013-02-03 04:52:00,